Location: ????????
(54.9045°N, 39.1041°E)
Time: 12:14:21
(UTC+00:00)

Meteor 1-19 Rocket - Pass Details

Date: 14 April 2024
Orbit: 805 x 929 km, 81.2° (Epoch: 22 May)

Event Time Altitude Azimuth Distance (km) Brightness Sun altitude
Exits shadow 00:48:12 10° 194° (SSW) 2,614 6.3 -12.8°
Reaches altitude 10° 00:48:18 10° 194° (SSW) 2,575 6.3 -12.7°
Maximum altitude 00:54:13 86° 284° (WNW) 928 4.4 -12.1°
Drops below altitude 10° 01:00:18 10° 14° (NNE) 2,644 7.5 -11.4°
Sets 01:02:49 0° 15° (NNE) 3,595 8.3 -11.1°
